FW8889 Weather Reports


time (UTC)temp
F
wind
direction
speed
knots
gust
knots
rain 1hr
in
rain 24hr
in
rain mn
in
humidity
%
barometer
mb
20260905054559 64 0 0.0 0.0 0.00 0.00 0.00 85 1009.5
20260905053103 63 0 0.0 0.9 0.00 0.00 0.00 85 1009.5
20260905051558 63 0 0.0 0.0 0.00 0.00 0.00 85 1009.7
20260905050058 63 0 0.0 0.9 0.00 0.00 0.00 85 1009.6
20260905044606 63 0 0.0 0.9 0.00 0.00 0.00 85 1009.4
20260905043107 63 0 0.0 0.0 0.00 0.00 0.00 85 1009.6
20260905041602 63 0 0.0 0.9 0.00 0.00 0.00 84 1009.6
20260905040104 63 0 0.0 0.0 0.00 0.00 0.00 84 1009.5
20260905034609 63 0 0.0 0.0 0.00 0.00 0.00 85 1009.5
20260905033105 63 0 0.0 0.9 0.00 0.00 0.00 85 1009.6
20260905031555 64 0 0.0 0.9 0.00 0.00 0.00 85 1009.6
20260905030107 64 0 0.0 0.0 0.00 0.00 0.00 84 1009.8
20260905024601 64 0 0.0 0.0 0.00 0.00 0.00 84 1009.7
20260905023055 64 0 0.0 0.0 0.00 0.00 0.00 84 1009.8
20260905021552 64 0 0.0 0.0 0.00 0.00 0.00 83 1010.0
20260905020052 65 0 0.0 0.0 0.00 0.00 0.00 83 1010.0
20260905014555 65 0 0.0 0.0 0.00 0.00 0.00 83 1010.2
20260905013058 65 0 0.0 0.0 0.00 0.00 0.00 83 1010.1
20260905011555 66 0 0.0 0.0 0.00 0.00 0.00 82 1010.2
20260905010103 66 0 0.0 0.0 0.00 0.00 0.00 81 1010.3
20260905004559 67 0 0.0 0.0 0.00 0.00 0.00 80 1010.1
20260905003058 68 0 0.0 0.0 0.00 0.00 0.00 79 1010.2
20260905001555 69 0 0.0 0.0 0.00 0.00 0.00 78 1010.1
20260905000054 70 0 0.0 0.0 0.00 0.00 0.00 77 1010.0
20260904234607 71 0 0.0 0.9 0.00 0.00 0.00 76 1009.7
20260904233053 72 0 0.0 0.9 0.00 0.00 0.00 74 1009.5
20260904231551 73 0 0.0 0.0 0.00 0.00 0.00 71 1009.3
20260904224559 75 0 0.0 0.0 0.00 0.00 0.00 71 1009.3
20260904223058 76 0 0.0 0.0 0.00 0.00 0.00 68 1009.2
20260904221602 76 0 0.0 1.7 0.00 0.00 0.00 59 1009.0
20260904220111 77 0 0.0 2.6 0.00 0.00 0.00 60 1009.1
20260904214601 78 150 0.0 7.0 0.00 0.00 0.00 61 1009.0
20260904213055 79 0 0.0 5.2 0.00 0.00 0.00 57 1009.0
20260904211609 79 162 0.0 2.6 0.00 0.00 0.00 56 1009.1
20260904210103 80 0 0.0 2.6 0.00 0.00 0.00 54 1009.0
20260904204554 81 0 0.9 6.1 0.00 0.00 0.00 56 1008.9
20260904203053 82 138 0.0 6.1 0.00 0.00 0.00 55 1008.9
20260904201554 82 49 0.9 3.5 0.00 0.00 0.00 51 1009.1
20260904200122 82 198 0.9 7.0 0.00 0.00 0.00 51 1008.9
20260904194633 83 300 1.7 7.0 0.00 0.00 0.00 49 1008.7
20260904193053 83 141 0.9 5.2 0.00 0.00 0.00 49 1008.5
20260904191622 83 86 1.7 7.8 0.00 0.00 0.00 49 1008.6
20260904190057 83 171 0.9 6.1 0.00 0.00 0.00 51 1008.9
20260904184559 82 128 0.9 7.8 0.00 0.00 0.00 57 1009.0
20260904183050 82 141 0.9 5.2 0.00 0.00 0.00 54 1009.0
20260904181600 80 0 0.0 2.6 0.00 0.00 0.00 57 1009.0
20260904180103 80 0 0.9 5.2 0.00 0.00 0.00 57 1009.2
20260904174605 81 162 0.9 6.1 0.00 0.00 0.00 56 1009.2
20260904173117 80 0 0.9 3.5 0.00 0.00 0.00 59 1009.2
20260904171602 79 143 0.0 2.6 0.00 0.00 0.00 62 1009.6
20260904164601 79 215 1.7 5.2 0.00 0.00 0.00 62 1009.6
20260904163058 78 116 0.9 5.2 0.00 0.00 0.00 64 1009.6
20260904161554 78 0 0.9 4.3 0.00 0.00 0.00 65 1009.7
20260904160054 77 0 0.9 4.3 0.00 0.00 0.00 69 1009.9
20260904154617 76 0 0.9 3.5 0.00 0.00 0.00 73 1010.0
20260904153059 76 0 0.0 2.6 0.00 0.00 0.00 74 1010.2
20260904151607 75 0 0.9 5.2 0.00 0.00 0.00 77 1010.3
20260904150103 74 292 0.0 3.5 0.00 0.00 0.00 78 1010.4
20260904144600 73 0 0.0 4.3 0.00 0.00 0.00 81 1010.4
20260904143056 72 296 0.0 2.6 0.00 0.00 0.00 83 1010.5
20260904141618 71 0 0.0 2.6 0.00 0.00 0.00 84 1010.8
20260904140104 69 0 0.0 3.5 0.00 0.00 0.00 84 1010.8
20260904134619 68 59 0.0 1.7 0.00 0.00 0.00 79 1010.8
20260904133108 67 0 0.0 1.7 0.00 0.00 0.00 77 1011.0
20260904131602 66 0 0.0 2.6 0.00 0.00 0.00 76 1011.1
20260904130050 66 74 0.0 3.5 0.00 0.00 0.00 76 1011.0
20260904124554 65 0 0.0 1.7 0.00 0.00 0.00 76 1011.2
20260904123054 65 0 0.0 1.7 0.00 0.00 0.00 76 1011.0
20260904121549 65 0 0.0 1.7 0.00 0.00 0.00 76 1011.1
20260904114555 65 0 0.0 1.7 0.00 0.04 0.00 76 1011.1
20260904113056 65 0 0.0 0.0 0.00 0.04 0.00 76 1011.0
20260904111552 65 0 0.0 0.9 0.00 0.04 0.00 76 1011.0
20260904110101 65 0 0.0 0.9 0.00 0.04 0.00 76 1010.9
20260904104557 65 121 0.0 1.7 0.00 0.17 0.00 76 1010.8
20260904103054 65 0 0.0 0.9 0.00 0.17 0.00 77 1010.7
20260904101550 65 121 0.0 0.0 0.00 0.17 0.00 77 1010.6
20260904100110 65 0 0.0 1.7 0.00 0.17 0.00 77 1010.6
20260904094555 65 0 0.0 0.0 0.00 0.27 0.00 77 1010.6
20260904093103 65 0 0.0 0.0 0.00 0.27 0.00 77 1010.6
20260904091559 64 0 0.0 0.9 0.00 0.27 0.00 77 1010.6
20260904090054 64 0 0.0 0.9 0.00 0.27 0.00 77 1010.7
20260904084554 64 0 0.0 0.0 0.00 0.37 0.00 77 1010.6
20260904083058 64 0 0.0 0.9 0.00 0.37 0.00 77 1010.8
20260904081555 64 0 0.0 0.9 0.00 0.37 0.00 77 1010.8
20260904080056 64 0 0.0 0.0 0.00 0.37 0.00 77 1010.9
20260904074604 64 0 0.0 0.0 0.00 0.37 0.00 77 1010.9
20260904073058 64 0 0.0 0.0 0.00 0.37 0.00 77 1010.8
20260904071600 64 0 0.0 0.0 0.00 0.37 0.00 77 1011.0
20260904070055 64 0 0.0 0.0 0.00 0.37 0.00 77 1011.0
20260904064615 64 0 0.0 0.0 0.00 0.37 0.00 77 1011.2
20260904063050 64 0 0.0 0.0 0.00 0.37 0.00 77 1011.3
20260904061554 64 0 0.0 0.0 0.00 0.37 0.00 77 1011.5
20260904060055 64 0 0.0 0.0 0.00 0.37 0.00 77 1011.8